Location: Cheyres
(46.8153°N, 6.7877°E)
Time: 22:50:43
(UTC+00:00)

QB50P2 - Pass Details

Date: 03 July 2022
Orbit: 590 x 605 km, 97.9° (Epoch: 15 August)

Event Time Altitude Azimuth Distance (km) Brightness Sun altitude
Rises 02:01:40 0° 2° (N) 2,862 ? -13.0°
Reaches altitude 10° 02:04:08 10° 349° (N) 1,957 ? -12.7°
Maximum altitude 02:07:34 24° 295° (WNW) 1,253 ? -12.4°
Enters shadow 02:10:17 14° 247° (WSW) 1,724 ? -12.1°
